[[[{"header":{"parameterUnit":"kt","parameterCategory":2,"dx":1,"dy":1,"la1":30.253999710083008,"la2":30.299108505249023,"lo1":-89.0895004272461,"lo2":-89.04439544677734,"nx":28,"ny":28,"refTime":"2022-09-21T09:00:00:Z","depth":"0","parameterNumber":2,"parameterNumberName":"U-component_of_CURRENTS"},"data":[-0.0403,-0.035,-0.0409,-0.03,-0.034,-0.0157,-0.0027,0.022,0.0499,0.1214,0.1748,0.2054,0.2645,0.3568,0.3789,0.358,0.3243,0.3258,0.2846,0.285,0.2724,0.2603,0.2818,0.3806,0.3807,0.324,0.3239,0.3239,-0.0559,-0.061,-0.0674,-0.0718,-0.0697,-0.082,-0.0742,-0.0544,-0.0169,0.0146,0.0561,0.1453,0.2019,0.2105,0.2406,0.2352,0.1887,0.2285,0.212,0.1974,0.1593,0.18,0.2587,0.2587,0.2587,0.2586,0.2586,0.2586,-0.0851,-0.085,-0.0935,-0.0985,-0.1068,-0.1046,-0.0937,-0.0909,-0.0716,-0.0353,-0.0274,0.0258,0.0795,0.0903,0.0695,0.0847,0.0384,0.094,0.0949,0.0625,0.0752,0.0268,0.0667,0.0661,0.0655,0.065,0.0646,0,-0.104,-0.111,-0.1143,-0.1235,-0.1282,-0.1313,-0.1331,-0.1282,-0.1268,-0.1124,-0.0798,-0.0546,-0.0373,0.0012,-0.006,-0.0158,-0.0373,-0.0424,-0.0225,0.0565,0.0401,0.0356,-0.037,-0.004,-0.005,-0.0058,-0.0064,-0.0068,-0.125,-0.126,-0.1387,-0.1418,-0.1451,-0.1479,-0.1497,-0.1548,-0.1521,-0.1379,-0.1305,-0.1163,-0.0916,-0.0874,-0.0897,-0.0935,-0.1025,-0.0665,-0.0691,-0.0409,-0.0358,-0.062,-0.0659,-0.0182,-0.0167,-0.0155,-0.0146,0,-0.1348,-0.1449,-0.1464,-0.1555,-0.1585,-0.1574,-0.1618,-0.1602,-0.161,-0.1521,-0.1494,-0.1446,-0.134,-0.1425,-0.1472,-0.1539,-0.1363,-0.1512,-0.1038,-0.097,-0.0574,-0.0527,-0.0445,-0.0452,-0.1354,-0.1348,-0.1342,0,-0.1508,-0.1503,-0.1632,-0.1629,-0.1633,-0.1687,-0.167,-0.1687,-0.1689,-0.1627,-0.1685,-0.1574,-0.1681,-0.1653,-0.1748,-0.1672,-0.1774,-0.17,-0.1693,-0.1307,-0.1255,-0.1017,-0.0953,-0.1947,-0.1947,-0.1947,-0.1947,0,-0.1583,-0.1645,-0.1668,-0.1684,-0.1744,-0.1743,-0.1767,-0.1789,-0.1784,-0.1771,-0.174,-0.1748,-0.1706,-0.1775,-0.1795,-0.1858,-0.1811,-0.191,-0.1748,-0.1735,-0.1341,-0.1289,-0.0874,-0.1947,-0.1947,-0.1946,-0.1946,0,-0.1676,-0.1717,-0.1738,-0.1779,-0.1783,-0.1791,-0.1803,-0.1818,-0.1832,-0.1835,-0.1829,-0.1832,-0.1817,-0.1855,-0.1886,-0.1888,-0.1942,-0.1965,-0.1967,-0.1748,-0.1768,-0.1327,-0.1144,-0.0878,-0.2004,-0.2004,-0.2005,0,-0.1725,-0.1758,-0.1807,-0.1814,-0.1828,-0.1874,-0.188,-0.1906,-0.1926,-0.1915,-0.1922,-0.1905,-0.1952,-0.1929,-0.1941,-0.1963,-0.1974,-0.1977,-0.2022,-0.2023,-0.1787,-0.1704,-0.1231,-0.1178,-0.2008,-0.2007,-0.2007,0,-0.1758,-0.1845,-0.1841,-0.1857,-0.1907,-0.1914,-0.1932,-0.1958,-0.1955,-0.1972,-0.1953,-0.1972,-0.1973,-0.1982,-0.1997,-0.1992,-0.1982,-0.2027,-0.2029,-0.2016,-0.199,-0.1742,-0.1717,-0.1997,-0.1996,-0.1996,-0.2009,0,-0.1854,-0.1872,-0.1869,-0.1908,-0.1924,-0.1932,-0.1976,-0.1984,-0.2007,-0.203,-0.2022,-0.2027,-0.2033,-0.2045,-0.2064,-0.2051,-0.2072,-0.2088,-0.2084,-0.2072,-0.2084,-0.2082,-0.2122,-0.2123,-0.2123,-0.2124,0,0,-0.1867,-0.1899,-0.1937,-0.1946,-0.1963,-0.201,-0.2016,-0.2035,-0.2064,-0.2066,-0.2077,-0.2087,-0.2098,-0.2087,-0.2096,-0.2106,-0.2117,-0.2096,-0.2089,-0.2085,-0.2081,-0.2091,-0.2088,-0.2126,-0.2126,-0.2126,-0.2126,0,-0.1908,-0.1933,-0.1938,-0.196,-0.1996,-0.2025,-0.2029,-0.2067,-0.2081,-0.2082,-0.211,-0.2106,-0.2115,-0.2122,-0.213,-0.2116,-0.2131,-0.2137,-0.2096,-0.2096,-0.2091,-0.2086,-0.2094,-0.2091,-0.2128,-0.2128,-0.2128,0,-0.1942,-0.1975,-0.1983,-0.2023,-0.2042,-0.2058,-0.2092,-0.2105,-0.2119,-0.2135,-0.2134,-0.2145,-0.2164,-0.2156,-0.2154,-0.2156,-0.2137,-0.2146,-0.2143,-0.2132,-0.2133,-0.2127,-0.2123,-0.2179,-0.2178,-0.2178,0,0,-0.1964,-0.198,-0.203,-0.2033,-0.2044,-0.2084,-0.2096,-0.2121,-0.2138,-0.2142,-0.2148,-0.2159,-0.2168,-0.216,-0.2168,-0.2145,-0.2153,-0.2148,-0.2146,-0.2144,-0.2132,-0.2132,-0.2127,-0.2177,-0.2177,-0.2177,0,0,-0.1974,-0.2033,-0.2053,-0.2063,-0.209,-0.2132,-0.2129,-0.2155,-0.2159,-0.2159,-0.2174,-0.2173,-0.2166,-0.2172,-0.2163,-0.2169,-0.2185,-0.2185,-0.2143,-0.214,-0.2138,-0.2122,-0.2179,0,0,0,0,0,-0.2032,-0.2027,-0.2044,-0.2053,-0.21,-0.2123,-0.2128,-0.2162,-0.2178,-0.2174,-0.2182,-0.2187,-0.2183,-0.2174,-0.217,-0.216,-0.2169,-0.217,-0.2172,-0.2114,-0.2111,-0.2109,0,0,0,0,0,0,-0.2036,-0.2046,-0.2045,-0.2088,-0.2099,-0.2123,-0.2155,-0.2164,-0.2179,-0.2183,-0.2187,-0.2187,-0.2194,-0.2177,-0.2172,-0.2164,-0.218,-0.2169,-0.2171,-0.2172,-0.2113,-0.2111,-0.2109,0,0,0,0,0,-0.2039,-0.2047,-0.2115,-0.2088,-0.2098,-0.2143,-0.2156,-0.2163,-0.2171,-0.2185,-0.2188,-0.2198,-0.2194,-0.2191,-0.2174,-0.2166,-0.2183,-0.2181,-0.217,-0.2171,-0.2172,-0.2112,0,0,0,0,0,0,-0.2042,-0.2046,-0.2117,-0.2121,-0.2096,-0.2142,-0.215,-0.2162,-0.2172,-0.2176,-0.2196,-0.2199,-0.2193,-0.2191,-0.2188,-0.2167,-0.2185,-0.2184,-0.2183,-0.2171,-0.2172,-0.2172,0,0,0,0,0,0,-0.2042,-0.2049,-0.2119,-0.2128,-0.2133,-0.2141,-0.2149,-0.2129,-0.217,-0.218,-0.2185,-0.2197,-0.2186,-0.2191,-0.2189,-0.2158,-0.2187,-0.2186,-0.2185,-0.2184,-0.2172,-0.2172,0,0,0,0,0,0,-0.2046,-0.2051,-0.2127,-0.2131,-0.2135,-0.2181,-0.2122,-0.2159,-0.2208,-0.2177,-0.2211,-0.2212,-0.2184,-0.2184,-0.2189,-0.2159,-0.2158,-0.2187,-0.2186,-0.2185,-0.2185,0,0,0,0,0,0,0,-0.2048,-0.2003,-0.2097,-0.2133,-0.2137,-0.2161,-0.2162,-0.2162,-0.2208,-0.2209,-0.2211,-0.2212,-0.2196,-0.2194,-0.2192,-0.216,0,0,-0.2187,-0.2186,0,0,0,0,0,0,0,0,-0.2001,-0.2003,-0.2098,-0.2099,-0.21,-0.2161,-0.2162,-0.2162,-0.2208,-0.2209,-0.221,-0.2211,-0.2195,-0.2194,-0.2192,0,0,0,0,0,0,0,0,0,0,0,0,0,0,0,-0.2098,-0.2099,0,-0.2161,-0.2162,-0.2162,-0.2209,-0.2209,-0.221,-0.2211,-0.2195,-0.2194,-0.2193,0,0,0,0,0,0,0,0,0,0,0,0,0,0,0,0,0,0,0,0,0,0,0,0,0,0,0,0,0,0,0,0,0,0,0,0,0,0,0,0,0,0,0,0,0,0,0,0,0,0,0,0,0,0,0,0,0,0,0,0,0,0,0,0,0,0,0,0,0]}],[{"header":{"parameterUnit":"kt","parameterCategory":2,"dx":1,"dy":1,"la1":30.253999710083008,"la2":30.299108505249023,"lo1":-89.0895004272461,"lo2":-89.04439544677734,"nx":28,"ny":28,"refTime":"2022-09-21T09:00:00:Z","depth":"0","parameterNumber":3,"parameterNumberName":"V-component_of_CURRENTS"},"data":[-0.0847,-0.0802,-0.0803,-0.0495,-0.0363,0.0025,0.0247,0.0587,0.0886,0.144,0.1819,0.2079,0.1832,0.0299,-0.0848,-0.1324,-0.1935,-0.2041,-0.2425,-0.202,-0.2015,-0.2011,-0.2006,-0.2062,-0.2063,-0.2853,-0.2859,-0.2864,-0.0912,-0.0917,-0.0876,-0.0749,-0.0562,-0.0536,-0.0231,0.0023,0.0384,0.0665,0.0961,0.1177,0.0632,-0.0019,-0.0821,-0.1364,-0.1766,-0.1691,-0.1809,-0.1989,-0.1497,-0.1464,-0.1406,-0.1406,-0.1406,-0.1405,-0.1405,-0.1405,-0.1029,-0.1019,-0.1018,-0.0953,-0.0851,-0.0637,-0.0452,-0.0284,-0.0061,0.0252,0.0279,0.0525,0.0162,-0.0445,-0.086,-0.1463,-0.161,-0.1541,-0.1663,-0.1769,-0.1938,-0.1396,-0.137,-0.1372,-0.1373,-0.1375,-0.1376,0,-0.1115,-0.1138,-0.1127,-0.1073,-0.0996,-0.0878,-0.0752,-0.0647,-0.0569,-0.0454,-0.0225,-0.0169,-0.044,-0.0612,-0.1042,-0.1224,-0.1679,-0.1503,-0.1692,-0.1666,-0.1752,-0.1949,-0.1456,-0.1429,-0.1431,-0.1433,-0.1434,-0.1435,-0.1222,-0.1208,-0.1203,-0.1171,-0.1154,-0.1094,-0.1028,-0.1024,-0.093,-0.0842,-0.0738,-0.0819,-0.0749,-0.0983,-0.1293,-0.1532,-0.1708,-0.1542,-0.16,-0.1744,-0.1874,-0.1983,-0.2145,-0.1458,-0.1455,-0.1453,-0.1451,0,-0.1278,-0.1302,-0.1267,-0.1267,-0.1246,-0.1213,-0.1141,-0.1101,-0.114,-0.1029,-0.1034,-0.1111,-0.117,-0.1339,-0.1477,-0.1577,-0.1763,-0.1692,-0.1523,-0.1521,-0.1754,-0.1857,-0.204,-0.2234,-0.1784,-0.1783,-0.1783,0,-0.1359,-0.133,-0.1348,-0.1324,-0.1283,-0.1301,-0.1257,-0.1299,-0.13,-0.1216,-0.1375,-0.128,-0.1475,-0.1492,-0.1595,-0.1643,-0.1655,-0.1735,-0.1751,-0.1629,-0.1616,-0.1756,-0.1857,-0.1786,-0.1786,-0.1786,-0.1785,0,-0.1389,-0.1396,-0.1381,-0.1374,-0.1371,-0.1363,-0.1363,-0.1401,-0.1381,-0.1459,-0.143,-0.1505,-0.1475,-0.1571,-0.1604,-0.1635,-0.1658,-0.1719,-0.1743,-0.1741,-0.1633,-0.162,-0.1779,-0.1785,-0.1785,-0.1785,-0.1785,0,-0.1433,-0.1439,-0.1431,-0.1401,-0.1402,-0.1394,-0.1404,-0.1421,-0.1469,-0.1491,-0.1508,-0.1522,-0.1547,-0.1556,-0.1615,-0.16,-0.1654,-0.1683,-0.1686,-0.1657,-0.1671,-0.1574,-0.157,-0.1728,-0.172,-0.172,-0.1719,0,-0.1425,-0.1439,-0.1461,-0.1442,-0.1433,-0.1456,-0.147,-0.1494,-0.1518,-0.1525,-0.1547,-0.1545,-0.1554,-0.1546,-0.1579,-0.161,-0.1647,-0.1621,-0.1691,-0.1692,-0.166,-0.1682,-0.1544,-0.1566,-0.1711,-0.1712,-0.1713,0,-0.1418,-0.1444,-0.1446,-0.1428,-0.146,-0.1457,-0.149,-0.1515,-0.152,-0.1531,-0.1531,-0.1554,-0.1547,-0.1558,-0.1565,-0.1594,-0.1635,-0.1614,-0.1615,-0.1623,-0.1704,-0.1675,-0.1677,-0.1664,-0.1665,-0.1665,-0.1707,0,-0.1391,-0.1409,-0.1424,-0.1455,-0.1462,-0.1473,-0.1494,-0.1505,-0.1511,-0.1521,-0.1529,-0.1532,-0.154,-0.1556,-0.1567,-0.1595,-0.1599,-0.1613,-0.1614,-0.163,-0.1646,-0.1651,-0.1595,-0.1595,-0.1594,-0.1594,0,0,-0.1358,-0.1402,-0.1435,-0.1451,-0.1454,-0.1474,-0.1481,-0.1495,-0.1503,-0.1512,-0.1507,-0.1517,-0.1535,-0.1554,-0.1564,-0.1575,-0.1592,-0.1575,-0.1621,-0.1624,-0.1627,-0.1643,-0.1647,-0.1594,-0.1594,-0.1594,-0.1594,0,-0.136,-0.14,-0.143,-0.1438,-0.1464,-0.1473,-0.1478,-0.1491,-0.1496,-0.1503,-0.1505,-0.1513,-0.1532,-0.1545,-0.1557,-0.1573,-0.1588,-0.1585,-0.1584,-0.162,-0.1623,-0.1626,-0.1642,-0.1646,-0.1594,-0.1594,-0.1594,0,-0.1344,-0.1379,-0.1401,-0.1447,-0.1458,-0.1469,-0.1472,-0.1489,-0.1495,-0.1495,-0.1496,-0.1502,-0.152,-0.1538,-0.1546,-0.1549,-0.1586,-0.1572,-0.1573,-0.1559,-0.1595,-0.1599,-0.1602,-0.1561,-0.1561,-0.1561,0,0,-0.1341,-0.138,-0.1413,-0.1449,-0.1459,-0.1468,-0.1475,-0.1481,-0.149,-0.1491,-0.1492,-0.1502,-0.1516,-0.1527,-0.1535,-0.1553,-0.1562,-0.1568,-0.1569,-0.1571,-0.1557,-0.1593,-0.1597,-0.156,-0.156,-0.156,0,0,-0.1335,-0.139,-0.14,-0.1449,-0.1462,-0.1477,-0.1485,-0.1484,-0.1487,-0.1489,-0.1492,-0.1495,-0.1508,-0.1518,-0.1507,-0.1544,-0.1538,-0.154,-0.1537,-0.1539,-0.1541,-0.1521,-0.1513,0,0,0,0,0,-0.1353,-0.1386,-0.1395,-0.1407,-0.1457,-0.1476,-0.1478,-0.1485,-0.1481,-0.1483,-0.1486,-0.1491,-0.1517,-0.1508,-0.1511,-0.1526,-0.1552,-0.1553,-0.1555,-0.1554,-0.1556,-0.1558,0,0,0,0,0,0,-0.1358,-0.1374,-0.1394,-0.1417,-0.1428,-0.1475,-0.1474,-0.1475,-0.1481,-0.1481,-0.1489,-0.1491,-0.1497,-0.1507,-0.1509,-0.1524,-0.1512,-0.1552,-0.1554,-0.1555,-0.1555,-0.1557,-0.1558,0,0,0,0,0,-0.1362,-0.1375,-0.1463,-0.1415,-0.1424,-0.144,-0.1473,-0.1474,-0.1473,-0.149,-0.1491,-0.148,-0.1497,-0.1499,-0.1509,-0.1523,-0.1511,-0.1511,-0.1553,-0.1554,-0.1555,-0.1556,0,0,0,0,0,0,-0.1365,-0.136,-0.1464,-0.1466,-0.1415,-0.1437,-0.1444,-0.1474,-0.1481,-0.1484,-0.1482,-0.1482,-0.1497,-0.1499,-0.1501,-0.1523,-0.1509,-0.151,-0.1511,-0.1554,-0.1555,-0.1556,0,0,0,0,0,0,-0.1353,-0.1362,-0.1465,-0.1466,-0.1467,-0.1433,-0.144,-0.1449,-0.1481,-0.1472,-0.1473,-0.1482,-0.15,-0.1498,-0.15,-0.1512,-0.1509,-0.1509,-0.151,-0.151,-0.1555,-0.1555,0,0,0,0,0,0,-0.1356,-0.1363,-0.1465,-0.1466,-0.1467,-0.1482,-0.144,-0.1493,-0.148,-0.1471,-0.148,-0.148,-0.15,-0.1501,-0.1499,-0.1511,-0.1512,-0.1509,-0.1509,-0.1509,-0.151,0,0,0,0,0,0,0,-0.1359,-0.132,-0.146,-0.1466,-0.1467,-0.1482,-0.1482,-0.1482,-0.148,-0.148,-0.148,-0.148,-0.1504,-0.1505,-0.1506,-0.151,0,0,-0.1508,-0.1509,0,0,0,0,0,0,0,0,-0.1316,-0.1319,-0.146,-0.1461,-0.1462,-0.1482,-0.1482,-0.1482,-0.148,-0.148,-0.148,-0.148,-0.1504,-0.1505,-0.1506,0,0,0,0,0,0,0,0,0,0,0,0,0,0,0,-0.1461,-0.1461,0,-0.1482,-0.1482,-0.1482,-0.148,-0.148,-0.148,-0.148,-0.1504,-0.1505,-0.1506,0,0,0,0,0,0,0,0,0,0,0,0,0,0,0,0,0,0,0,0,0,0,0,0,0,0,0,0,0,0,0,0,0,0,0,0,0,0,0,0,0,0,0,0,0,0,0,0,0,0,0,0,0,0,0,0,0,0,0,0,0,0,0,0,0,0,0,0,0]}]],[[{"header":{"parameterUnit":"kt","parameterCategory":2,"dx":1,"dy":1,"la1":30.253999710083008,"la2":30.299108505249023,"lo1":-89.0895004272461,"lo2":-89.04439544677734,"nx":28,"ny":28,"refTime":"2022-09-21T09:00:00:Z","depth":"2","parameterNumber":2,"parameterNumberName":"U-component_of_CURRENTS"},"data":[-0.0683,-0.0571,-0.0488,-0.0365,-0.0303,-0.0281,-0.0315,-0.0385,-0.0325,-0.0244,-0.0088,-0.0078,0.0134,0.0242,0.033,0.0473,0.0593,0.0473,0.0804,0.0681,0.0704,0.079,0.0538,0,0,0,0,0,-0.0716,-0.0614,-0.0541,-0.0452,-0.0402,-0.0343,-0.038,-0.0422,-0.0435,-0.026,-0.0205,-0.0099,0.0009,0.0322,0.0636,0.0766,0.0735,0.0782,0.0671,0.0693,0.0715,0.0541,0.0481,0.0482,0.0482,0.0483,0,0,-0.0736,-0.0701,-0.0589,-0.0511,-0.0456,-0.0438,-0.0465,-0.0419,-0.0392,-0.0277,-0.0208,-0.0046,0.0134,0.0574,0.0749,0.1008,0.1067,0.1042,0.1047,0.1056,0.0903,0.0825,0.0935,0.0938,0.094,0.0942,0.0944,0,-0.0708,-0.0682,-0.0609,-0.0542,-0.0502,-0.0456,-0.0402,-0.0431,-0.0273,-0.0201,-0.0064,0.002,0.0394,0.0581,0.0935,0.1045,0.1191,0.1197,0.1475,0.0874,0.0797,0.0798,0.0789,0.0924,0.0927,0.0929,0.0931,0.0932,-0.0695,-0.0643,-0.0547,-0.051,-0.0481,-0.0448,-0.0387,-0.0288,-0.0215,-0.0022,0.0042,0.0293,0.0409,0.0807,0.1041,0.1306,0.1333,0.1255,0.11,0.126,0.1267,0.1242,0.1218,0.0962,0.0959,0.0955,0.0953,0,-0.0695,-0.0603,-0.0509,-0.0393,-0.0372,-0.0344,-0.027,-0.0187,-0.0088,0.0023,0.0063,0.0298,0.0534,0.0741,0.1032,0.1085,0.1279,0.1324,0.1068,0.1063,0.1229,0.1205,0.1468,0.1468,0.1469,0.1469,0.1469,0,-0.0671,-0.0589,-0.049,-0.044,-0.0361,-0.0243,-0.0167,-0.0055,0.0054,0.0135,0.0269,0.0341,0.0534,0.0703,0.0821,0.0996,0.1062,0.1057,0.1091,0.0874,0.0849,0.0989,0.0968,0.1145,0.1142,0.114,0.1138,0,-0.074,-0.0555,-0.0455,-0.0398,-0.0232,-0.0189,-0.012,0.002,0.0078,0.0235,0.0287,0.0427,0.0475,0.0617,0.074,0.069,0.0994,0.0954,0.1012,0.1011,0.0875,0.0853,0.1135,0.1135,0.1134,0.1133,0.1132,0,-0.0721,-0.0635,-0.0492,-0.0332,-0.0287,-0.0223,-0.0072,0.0022,0.0152,0.0208,0.0271,0.0314,0.0422,0.0362,0.0582,0.0488,0.0594,0.0678,0.0691,0.0644,0.0619,0.0642,0.0751,0.0841,0.0838,0.0834,0.0832,0,-0.0818,-0.0661,-0.0577,-0.0425,-0.0337,-0.0255,-0.0158,-0.0059,0.0016,0.0111,0.0151,0.0239,0.0195,0.0227,0.0294,0.0415,0.0516,0.037,0.0626,0.0635,0.0552,0.0682,0.0456,0.0705,0.0789,0.0793,0.0796,0,-0.0891,-0.0716,-0.0692,-0.0622,-0.0477,-0.0416,-0.0298,-0.0182,-0.0112,-0.0043,0.0051,0.0155,0.0144,0.0199,0.0222,0.0299,0.045,0.0302,0.0307,0.0409,0.0695,0.0632,0.0656,0.0444,0.0448,0.0451,0.0762,0,-0.0883,-0.0796,-0.0748,-0.0618,-0.0551,-0.0464,-0.0381,-0.0315,-0.0271,-0.0218,-0.0103,-0.0035,0.0063,0.0097,0.0121,0.0241,0.0266,0.0244,0.0219,0.0293,0.0423,0.045,0.013,0.013,0.0129,0.0129,0,0,-0.098,-0.0873,-0.0826,-0.0738,-0.0672,-0.0625,-0.0534,-0.0478,-0.0359,-0.0312,-0.0324,-0.0135,-0.0072,0.0054,0.0078,0.0118,0.0184,0.0103,0.0251,0.0264,0.0277,0.0403,0.0429,0.0129,0.0129,0.0128,0.0128,0,-0.0968,-0.0924,-0.0856,-0.0791,-0.0691,-0.0639,-0.0616,-0.0517,-0.0479,-0.0364,-0.0327,-0.0249,-0.011,-0.0048,0.0002,0.0104,0.0147,0.0126,0.0149,0.0246,0.0259,0.0271,0.0398,0.0421,0.0128,0.0128,0.0128,0,-0.1004,-0.0941,-0.0909,-0.0807,-0.0746,-0.0662,-0.0668,-0.0588,-0.0521,-0.0487,-0.0372,-0.0318,-0.023,-0.0121,-0.0068,-0.0083,0.0116,0.0037,0.004,0.0044,0.0142,0.0158,0.0172,-0.0009,-0.001,-0.0011,0,0,-0.1,-0.0942,-0.0856,-0.0801,-0.0763,-0.069,-0.0648,-0.0612,-0.0533,-0.0501,-0.0433,-0.0351,-0.0264,-0.0213,-0.0131,-0.0026,0.0029,0.0018,0.0024,0.0029,0.0035,0.0134,0.015,-0.0013,-0.0014,-0.0014,0,0,-0.1,-0.09,-0.088,-0.0815,-0.0745,-0.0659,-0.0618,-0.0593,-0.0514,-0.0504,-0.0446,-0.0423,-0.0312,-0.0271,-0.0314,-0.0144,-0.0168,-0.0156,-0.0179,-0.017,-0.0163,-0.0181,-0.0316,0,0,0,0,0,-0.0948,-0.091,-0.0893,-0.0872,-0.0753,-0.0665,-0.0648,-0.0604,-0.0603,-0.0575,-0.0503,-0.0494,-0.0282,-0.0319,-0.0294,-0.0249,-0.0049,-0.0043,-0.0037,-0.004,-0.0031,-0.0024,0,0,0,0,0,0,-0.0939,-0.0915,-0.0894,-0.0808,-0.078,-0.0667,-0.0671,-0.0657,-0.0606,-0.0604,-0.0507,-0.0492,-0.0452,-0.033,-0.0307,-0.0266,-0.0324,-0.0047,-0.0041,-0.0037,-0.0037,-0.003,-0.0024,0,0,0,0,0,-0.0932,-0.0913,-0.0737,-0.0808,-0.0784,-0.071,-0.0673,-0.0661,-0.0621,-0.0538,-0.0523,-0.0589,-0.0452,-0.0429,-0.0316,-0.0277,-0.0339,-0.0331,-0.0043,-0.0039,-0.0035,-0.0034,0,0,0,0,0,0,-0.0927,-0.0902,-0.0731,-0.0721,-0.0825,-0.0716,-0.0699,-0.0665,-0.0557,-0.0541,-0.0619,-0.0619,-0.0452,-0.0434,-0.0417,-0.0283,-0.0351,-0.0343,-0.0338,-0.004,-0.0037,-0.0034,0,0,0,0,0,0,-0.0911,-0.0894,-0.0726,-0.0751,-0.0743,-0.0721,-0.0706,-0.0615,-0.0555,-0.0644,-0.064,-0.062,-0.047,-0.0437,-0.0424,-0.0284,-0.0361,-0.0353,-0.0347,-0.0344,-0.0037,-0.0035,0,0,0,0,0,0,-0.0903,-0.0888,-0.0753,-0.0747,-0.0741,-0.063,-0.0639,-0.0515,-0.059,-0.0649,-0.0594,-0.0595,-0.0473,-0.0458,-0.0429,-0.0295,-0.0287,-0.0361,-0.0355,-0.0351,-0.0349,0,0,0,0,0,0,0,-0.0896,-0.1012,-0.0786,-0.0745,-0.0739,-0.063,-0.0627,-0.0625,-0.059,-0.0592,-0.0593,-0.0595,-0.0406,-0.0398,-0.0389,-0.0304,0,0,-0.0361,-0.0357,0,0,0,0,0,0,0,0,-0.1017,-0.1014,-0.0786,-0.0784,-0.0782,-0.063,-0.0628,-0.0626,-0.0591,-0.0592,-0.0593,-0.0594,-0.0404,-0.0397,-0.039,0,0,0,0,0,0,0,0,0,0,0,0,0,0,0,-0.0786,-0.0784,0,-0.0629,-0.0628,-0.0626,-0.0591,-0.0592,-0.0593,-0.0594,-0.0402,-0.0396,-0.039,0,0,0,0,0,0,0,0,0,0,0,0,0,0,0,0,0,0,0,0,0,0,0,0,0,0,0,0,0,0,0,0,0,0,0,0,0,0,0,0,0,0,0,0,0,0,0,0,0,0,0,0,0,0,0,0,0,0,0,0,0,0,0,0,0,0,0,0,0]}],[{"header":{"parameterUnit":"kt","parameterCategory":2,"dx":1,"dy":1,"la1":30.253999710083008,"la2":30.299108505249023,"lo1":-89.0895004272461,"lo2":-89.04439544677734,"nx":28,"ny":28,"refTime":"2022-09-21T09:00:00:Z","depth":"2","parameterNumber":3,"parameterNumberName":"V-component_of_CURRENTS"},"data":[0.0017,0.0,0.0064,0.0117,0.0207,0.0313,0.038,0.0373,0.0347,0.0236,0.0152,-0.0087,-0.012,-0.0287,-0.0379,-0.0377,-0.0254,-0.0424,-0.0207,-0.0083,-0.0048,-0.0013,-0.0048,0,0,0,0,0,0.0113,0.0166,0.0209,0.0279,0.0327,0.0413,0.0502,0.0517,0.0553,0.0514,0.0459,0.0169,-0.0041,-0.0033,-0.0171,-0.0287,-0.0263,-0.028,-0.0205,-0.0171,-0.0139,-0.0179,-0.0482,-0.0482,-0.0481,-0.0481,0,0,0.0302,0.031,0.0366,0.04,0.0462,0.0519,0.0566,0.0632,0.0678,0.0746,0.0735,0.0661,0.0545,0.0202,0.0109,0.0079,0.0115,0.0049,0.0067,0.0089,0.0052,-0.0009,-0.0186,-0.0184,-0.0182,-0.0181,-0.0179,0,0.0445,0.046,0.0522,0.0564,0.0593,0.0667,0.073,0.0746,0.091,0.0969,0.1022,0.0993,0.089,0.0676,0.0495,0.0352,0.0467,0.0336,0.0661,0.0348,0.0291,0.0291,0.0311,0.018,0.0184,0.0187,0.019,0.0191,0.0544,0.0581,0.0697,0.0717,0.075,0.0818,0.0856,0.0999,0.1028,0.1193,0.1188,0.1233,0.1156,0.1017,0.0861,0.0671,0.0779,0.0441,0.0405,0.0649,0.0646,0.0653,0.066,0.0235,0.023,0.0225,0.0221,0,0.058,0.0677,0.0759,0.0901,0.0934,0.0967,0.1049,0.1096,0.1206,0.1231,0.1248,0.1338,0.1295,0.1226,0.1149,0.1005,0.0892,0.0809,0.0651,0.0619,0.0684,0.0685,0.0607,0.0602,0.0598,0.0594,0.0591,0,0.0639,0.0716,0.0834,0.0872,0.0963,0.1062,0.1118,0.1193,0.1257,0.1283,0.1339,0.1332,0.1297,0.1239,0.1135,0.0966,0.1052,0.0839,0.0826,0.0718,0.0697,0.1008,0.1011,0.0988,0.0988,0.0989,0.0989,0,0.0569,0.075,0.084,0.0885,0.1016,0.1056,0.1115,0.1184,0.122,0.1294,0.1321,0.13,0.1277,0.1209,0.1097,0.1093,0.1033,0.1045,0.0862,0.0851,0.0749,0.0728,0.099,0.099,0.099,0.099,0.0991,0,0.0563,0.0651,0.0779,0.0911,0.0949,0.0998,0.1096,0.1165,0.1214,0.1247,0.123,0.1217,0.1187,0.1121,0.1064,0.1071,0.1009,0.0988,0.0986,0.0896,0.0889,0.0683,0.0613,0.0947,0.0947,0.0947,0.0947,0,0.047,0.0611,0.0645,0.0777,0.0857,0.0883,0.0959,0.1017,0.1048,0.1104,0.1078,0.1133,0.1051,0.1055,0.1024,0.1037,0.0995,0.1008,0.1016,0.1015,0.0881,0.0849,0.0709,0.0627,0.0949,0.0949,0.0949,0,0.0379,0.0485,0.0504,0.0565,0.065,0.0703,0.0781,0.087,0.0922,0.0948,0.1015,0.105,0.1009,0.105,0.104,0.1034,0.0994,0.1021,0.1023,0.0964,0.099,0.0866,0.0852,0.1018,0.1019,0.1019,0.095,0,0.0341,0.04,0.0436,0.0525,0.0574,0.0646,0.0699,0.0743,0.0766,0.081,0.0878,0.0911,0.0979,0.0987,0.1001,0.1028,0.1012,0.1041,0.1036,0.1046,0.1014,0.1012,0.1043,0.1043,0.1044,0.1045,0,0,0.025,0.032,0.0328,0.0401,0.0456,0.0468,0.0556,0.0599,0.0702,0.0742,0.0731,0.0865,0.0912,0.099,0.099,0.1029,0.1022,0.1023,0.105,0.105,0.105,0.102,0.1017,0.1046,0.1047,0.1047,0.1047,0,0.0242,0.0248,0.0299,0.0349,0.0423,0.0465,0.0477,0.0565,0.0605,0.0698,0.0734,0.0772,0.0901,0.0945,0.0986,0.1033,0.1035,0.1053,0.1037,0.1055,0.1054,0.1054,0.1023,0.1021,0.1049,0.1049,0.1049,0,0.0204,0.0239,0.0255,0.0327,0.038,0.0454,0.0457,0.0521,0.0584,0.0625,0.0729,0.0766,0.085,0.0928,0.0967,0.0968,0.1036,0.1042,0.104,0.1046,0.1066,0.1065,0.1065,0.1064,0.1063,0.1063,0,0,0.0204,0.023,0.0299,0.0332,0.0362,0.0432,0.0471,0.051,0.0583,0.0617,0.0684,0.0759,0.0829,0.087,0.0947,0.1017,0.1023,0.1039,0.1039,0.1038,0.1042,0.1062,0.1063,0.1061,0.1061,0.1061,0,0,0.0212,0.0273,0.0283,0.0326,0.0386,0.0475,0.0514,0.054,0.0618,0.0625,0.0692,0.0716,0.0796,0.0845,0.0817,0.0937,0.0946,0.0954,0.0891,0.0892,0.0891,0.0876,0.0844,0,0,0,0,0,0.0237,0.026,0.0268,0.0283,0.0383,0.0463,0.0481,0.0542,0.0543,0.0574,0.0642,0.0664,0.0849,0.0827,0.0849,0.0861,0.1042,0.1045,0.1049,0.0987,0.0986,0.0986,0,0,0,0,0,0,0.0243,0.0258,0.0269,0.035,0.0374,0.0462,0.0479,0.0497,0.0542,0.0548,0.0651,0.0667,0.0721,0.0819,0.0838,0.0848,0.0838,0.1043,0.1046,0.1049,0.0987,0.0986,0.0986,0,0,0,0,0,0.0248,0.0261,0.0397,0.0352,0.0373,0.0458,0.0478,0.0493,0.0535,0.0624,0.0642,0.0576,0.072,0.074,0.083,0.0838,0.0825,0.0832,0.1045,0.1047,0.105,0.0986,0,0,0,0,0,0,0.0252,0.0289,0.0404,0.0414,0.0342,0.0456,0.0472,0.049,0.061,0.0627,0.0552,0.0554,0.0719,0.0736,0.0751,0.0831,0.0815,0.0822,0.0826,0.1047,0.1049,0.105,0,0,0,0,0,0,0.0283,0.0297,0.0409,0.0392,0.0401,0.0454,0.0468,0.0541,0.0611,0.0532,0.0538,0.0551,0.0693,0.0732,0.0744,0.0857,0.0807,0.0813,0.0818,0.0821,0.1048,0.105,0,0,0,0,0,0,0.0291,0.0303,0.039,0.0397,0.0405,0.0526,0.0521,0.0621,0.0593,0.0526,0.0592,0.0592,0.0689,0.0703,0.074,0.0847,0.0855,0.0807,0.0811,0.0815,0.0817,0,0,0,0,0,0,0,0.0297,0.0191,0.0339,0.0401,0.0408,0.0506,0.0509,0.0512,0.0593,0.0593,0.0592,0.0592,0.0768,0.0775,0.0783,0.0839,0,0,0.0806,0.0809,0,0,0,0,0,0,0,0,0.0188,0.019,0.0339,0.0341,0.0343,0.0506,0.0509,0.0511,0.0593,0.0593,0.0592,0.0592,0.077,0.0776,0.0782,0,0,0,0,0,0,0,0,0,0,0,0,0,0,0,0.034,0.0341,0,0.0507,0.0509,0.0511,0.0593,0.0593,0.0592,0.0592,0.0772,0.0777,0.0782,0,0,0,0,0,0,0,0,0,0,0,0,0,0,0,0,0,0,0,0,0,0,0,0,0,0,0,0,0,0,0,0,0,0,0,0,0,0,0,0,0,0,0,0,0,0,0,0,0,0,0,0,0,0,0,0,0,0,0,0,0,0,0,0,0,0,0,0,0]}]],[[{"header":{"parameterUnit":"kt","parameterCategory":2,"dx":1,"dy":1,"la1":30.253999710083008,"la2":30.299108505249023,"lo1":-89.0895004272461,"lo2":-89.04439544677734,"nx":28,"ny":28,"refTime":"2022-09-21T09:00:00:Z","depth":"4","parameterNumber":2,"parameterNumberName":"U-component_of_CURRENTS"},"data":[-0.0589,-0.0591,-0.0574,-0.0505,-0.046,-0.042,-0.0411,-0.0412,-0.0395,-0.0405,-0.0356,-0.0324,-0.0221,-0.0319,-0.0097,-0.0069,-0.0133,0.0086,0.009,-0.0078,-0.0097,-0.0114,-0.0072,0,0,0,0,0,-0.0592,-0.0587,-0.0574,-0.0532,-0.051,-0.0487,-0.0484,-0.0487,-0.0488,-0.0452,-0.0452,-0.0386,-0.025,-0.0212,-0.0106,-0.0095,-0.0099,0.004,-0.0104,-0.009,-0.0111,-0.0063,0,0,0,0,0,0,-0.0594,-0.059,-0.0589,-0.0567,-0.0549,-0.0511,-0.051,-0.049,-0.048,-0.0472,-0.0457,-0.0402,-0.0385,-0.0243,-0.019,-0.0107,-0.0123,-0.012,-0.0138,-0.0157,-0.012,-0.0054,0.0073,0,0,0,0,0,-0.059,-0.06,-0.0594,-0.0575,-0.0565,-0.0545,-0.0534,-0.0525,-0.0521,-0.0533,-0.0492,-0.0422,-0.0345,-0.0288,-0.0204,-0.0198,-0.0252,-0.0197,-0.0211,-0.0277,-0.0235,-0.0248,-0.0261,-0.0192,-0.0195,-0.0196,-0.0197,0,-0.0601,-0.0598,-0.0589,-0.0581,-0.0575,-0.0566,-0.0559,-0.0557,-0.055,-0.0536,-0.0523,-0.0478,-0.0455,-0.0343,-0.033,-0.028,-0.029,-0.0251,-0.0322,-0.027,-0.0276,-0.0284,-0.0291,-0.0215,-0.0213,-0.0212,-0.021,0,-0.0611,-0.0606,-0.0596,-0.0585,-0.0579,-0.0572,-0.0566,-0.0559,-0.0558,-0.0542,-0.054,-0.0522,-0.0485,-0.0465,-0.049,-0.044,-0.0418,-0.0388,-0.0532,-0.0543,-0.0322,-0.0322,-0.0243,-0.0236,-0.0231,-0.0227,-0.0223,0,-0.0616,-0.0611,-0.0603,-0.0595,-0.0583,-0.0581,-0.0572,-0.0563,-0.0556,-0.0542,-0.0537,-0.0525,-0.0543,-0.0527,-0.0551,-0.0482,-0.057,-0.0471,-0.0467,-0.0652,-0.0651,-0.066,-0.066,-0.0662,-0.0663,-0.0663,-0.0663,0,-0.0627,-0.0616,-0.0606,-0.0602,-0.0589,-0.0586,-0.058,-0.0567,-0.056,-0.0544,-0.0539,-0.0532,-0.0533,-0.0563,-0.0565,-0.0593,-0.0581,-0.0634,-0.0503,-0.0492,-0.0662,-0.0661,-0.0663,-0.0663,-0.0663,-0.0663,-0.0663,0,-0.0632,-0.0623,-0.0613,-0.06,-0.0597,-0.0594,-0.058,-0.0573,-0.0554,-0.0548,-0.0536,-0.0535,-0.0535,-0.0557,-0.058,-0.058,-0.0608,-0.0626,-0.0626,-0.0475,-0.0481,-0.0615,-0.0626,-0.0626,-0.0625,-0.0625,-0.0625,0,-0.0636,-0.0625,-0.0623,-0.0614,-0.0603,-0.0597,-0.0592,-0.0579,-0.0568,-0.0553,-0.0549,-0.0549,-0.0555,-0.0563,-0.0577,-0.0603,-0.0613,-0.0611,-0.0647,-0.0647,-0.0485,-0.0457,-0.0649,-0.0624,-0.0624,-0.0624,-0.0625,0,-0.0637,-0.0626,-0.0627,-0.0619,-0.061,-0.0603,-0.0599,-0.0581,-0.0572,-0.0563,-0.0547,-0.0562,-0.056,-0.0569,-0.0581,-0.0598,-0.0609,-0.0619,-0.0621,-0.0591,-0.0643,-0.0476,-0.0461,-0.0647,-0.0647,-0.0648,-0.0624,0,-0.0622,-0.0622,-0.0624,-0.0615,-0.0611,-0.0605,-0.0592,-0.0588,-0.058,-0.0565,-0.0565,-0.0574,-0.0578,-0.0592,-0.0596,-0.0614,-0.0612,-0.0637,-0.0629,-0.0643,-0.063,-0.0631,-0.0628,-0.0629,-0.0629,-0.0629,0,0,-0.0621,-0.0616,-0.0614,-0.061,-0.0603,-0.0594,-0.0587,-0.058,-0.0567,-0.0559,-0.0561,-0.0572,-0.0585,-0.0591,-0.0595,-0.0612,-0.0619,-0.0602,-0.0641,-0.0642,-0.0643,-0.0631,-0.0632,-0.0629,-0.063,-0.063,-0.063,0,-0.0609,-0.0613,-0.0615,-0.0607,-0.0597,-0.0586,-0.0587,-0.057,-0.0561,-0.056,-0.056,-0.0568,-0.0585,-0.0586,-0.0592,-0.0613,-0.0617,-0.0631,-0.0615,-0.0642,-0.0643,-0.0644,-0.0632,-0.0632,-0.063,-0.063,-0.063,0,-0.0598,-0.0592,-0.0595,-0.0587,-0.0579,-0.0571,-0.0559,-0.0555,-0.0546,-0.0545,-0.0541,-0.055,-0.0564,-0.0576,-0.0586,-0.0583,-0.0611,-0.061,-0.061,-0.0597,-0.0624,-0.0626,-0.0627,-0.0608,-0.0608,-0.0607,0,0,-0.0589,-0.0593,-0.0577,-0.0582,-0.0578,-0.0562,-0.0558,-0.0547,-0.0541,-0.0539,-0.0537,-0.0546,-0.0557,-0.0563,-0.0574,-0.0591,-0.0593,-0.0605,-0.0606,-0.0607,-0.0595,-0.0622,-0.0623,-0.0606,-0.0606,-0.0606,0,0,-0.0581,-0.0569,-0.0566,-0.057,-0.0559,-0.0539,-0.054,-0.0531,-0.0529,-0.0531,-0.0527,-0.0528,-0.0544,-0.0554,-0.0538,-0.0573,-0.0572,-0.0575,-0.0554,-0.0556,-0.0557,-0.0536,-0.0532,0,0,0,0,0,-0.0564,-0.0572,-0.0569,-0.0567,-0.0554,-0.0543,-0.054,-0.0524,-0.052,-0.0521,-0.0519,-0.052,-0.0544,-0.053,-0.0534,-0.0543,-0.0592,-0.0595,-0.0597,-0.0575,-0.0577,-0.0578,0,0,0,0,0,0,-0.0564,-0.0562,-0.0568,-0.055,-0.0546,-0.0543,-0.0527,-0.0523,-0.0519,-0.0517,-0.0519,-0.052,-0.0515,-0.0529,-0.0532,-0.0541,-0.0531,-0.0593,-0.0595,-0.0597,-0.0576,-0.0577,-0.0578,0,0,0,0,0,-0.0563,-0.0562,-0.0546,-0.0549,-0.0546,-0.0526,-0.0527,-0.0523,-0.0521,-0.0517,-0.0516,-0.0509,-0.0515,-0.0518,-0.0531,-0.0539,-0.0529,-0.053,-0.0595,-0.0596,-0.0598,-0.0576,0,0,0,0,0,0,-0.0562,-0.0557,-0.0545,-0.0543,-0.0546,-0.0526,-0.0523,-0.0523,-0.0521,-0.052,-0.0507,-0.0506,-0.0516,-0.0518,-0.052,-0.0538,-0.0527,-0.0528,-0.0529,-0.0596,-0.0597,-0.0598,0,0,0,0,0,0,-0.0557,-0.0556,-0.0544,-0.0541,-0.0539,-0.0526,-0.0523,-0.0537,-0.0522,-0.0512,-0.051,-0.0507,-0.0523,-0.0518,-0.0519,-0.0541,-0.0525,-0.0527,-0.0527,-0.0528,-0.0597,-0.0598,0,0,0,0,0,0,-0.0556,-0.0555,-0.0541,-0.054,-0.0537,-0.0516,-0.0539,-0.0532,-0.0499,-0.0513,-0.0498,-0.0498,-0.0523,-0.0524,-0.0519,-0.054,-0.0541,-0.0525,-0.0526,-0.0527,-0.0527,0,0,0,0,0,0,0,-0.0555,-0.0571,-0.0556,-0.0538,-0.0537,-0.0526,-0.0526,-0.0525,-0.0499,-0.0499,-0.0498,-0.0498,-0.0519,-0.052,-0.0521,-0.0539,0,0,-0.0525,-0.0526,0,0,0,0,0,0,0,0,-0.0571,-0.0571,-0.0556,-0.0555,-0.0555,-0.0526,-0.0526,-0.0525,-0.0499,-0.0499,-0.0498,-0.0498,-0.0519,-0.052,-0.0521,0,0,0,0,0,0,0,0,0,0,0,0,0,0,0,-0.0556,-0.0555,0,-0.0526,-0.0526,-0.0525,-0.0499,-0.0499,-0.0498,-0.0498,-0.0519,-0.052,-0.0521,0,0,0,0,0,0,0,0,0,0,0,0,0,0,0,0,0,0,0,0,0,0,0,0,0,0,0,0,0,0,0,0,0,0,0,0,0,0,0,0,0,0,0,0,0,0,0,0,0,0,0,0,0,0,0,0,0,0,0,0,0,0,0,0,0,0,0,0,0]}],[{"header":{"parameterUnit":"kt","parameterCategory":2,"dx":1,"dy":1,"la1":30.253999710083008,"la2":30.299108505249023,"lo1":-89.0895004272461,"lo2":-89.04439544677734,"nx":28,"ny":28,"refTime":"2022-09-21T09:00:00:Z","depth":"4","parameterNumber":3,"parameterNumberName":"V-component_of_CURRENTS"},"data":[-0.079,-0.082,-0.0825,-0.0875,-0.0909,-0.0967,-0.0989,-0.1002,-0.0967,-0.0974,-0.0922,-0.0928,-0.0852,-0.09,-0.0794,-0.0788,-0.0813,-0.0758,-0.0757,-0.0818,-0.0825,-0.083,-0.0814,0,0,0,0,0,-0.0788,-0.08,-0.0834,-0.0878,-0.093,-0.0962,-0.0999,-0.1018,-0.1041,-0.0992,-0.1002,-0.0945,-0.0879,-0.0866,-0.0799,-0.0854,-0.0825,-0.0779,-0.0832,-0.0822,-0.0829,-0.0811,0,0,0,0,0,0,-0.0778,-0.0799,-0.0827,-0.0868,-0.0922,-0.0958,-0.0991,-0.0999,-0.1022,-0.1044,-0.102,-0.0997,-0.0999,-0.0928,-0.0884,-0.084,-0.0812,-0.0811,-0.0818,-0.0825,-0.0808,-0.0776,-0.0734,0,0,0,0,0,-0.0758,-0.0778,-0.0813,-0.0856,-0.0905,-0.0959,-0.1014,-0.1026,-0.1071,-0.111,-0.1074,-0.1053,-0.1013,-0.0965,-0.0931,-0.0875,-0.094,-0.0904,-0.0907,-0.0883,-0.0864,-0.0845,-0.0846,-0.0856,-0.0857,-0.0857,-0.0858,0,-0.0719,-0.0751,-0.0812,-0.084,-0.0873,-0.0946,-0.0988,-0.1045,-0.1068,-0.1115,-0.1116,-0.1125,-0.1118,-0.1025,-0.101,-0.0941,-0.092,-0.0923,-0.0898,-0.0875,-0.0855,-0.0854,-0.0853,-0.0863,-0.0863,-0.0863,-0.0862,0,-0.0695,-0.0714,-0.0778,-0.0839,-0.0865,-0.092,-0.0994,-0.1036,-0.1083,-0.1117,-0.1137,-0.1159,-0.1126,-0.1109,-0.1079,-0.1035,-0.0987,-0.0957,-0.1012,-0.0994,-0.0865,-0.0862,-0.0873,-0.0871,-0.0869,-0.0868,-0.0866,0,-0.0651,-0.0706,-0.0736,-0.0769,-0.0846,-0.0884,-0.0968,-0.1004,-0.1051,-0.1081,-0.111,-0.1119,-0.1121,-0.1111,-0.1067,-0.1002,-0.1046,-0.094,-0.0921,-0.0972,-0.0968,-0.0954,-0.0948,-0.101,-0.101,-0.101,-0.101,0,-0.0596,-0.0657,-0.0714,-0.0736,-0.0798,-0.0847,-0.089,-0.0947,-0.0979,-0.1036,-0.1057,-0.1085,-0.1101,-0.108,-0.1041,-0.1026,-0.1024,-0.1001,-0.0924,-0.0919,-0.0952,-0.0946,-0.101,-0.101,-0.101,-0.101,-0.101,0,-0.0555,-0.0579,-0.0646,-0.0712,-0.0731,-0.0781,-0.0864,-0.0905,-0.0951,-0.0968,-0.0997,-0.1004,-0.1035,-0.0996,-0.1001,-0.0988,-0.0967,-0.095,-0.0949,-0.0877,-0.0833,-0.0845,-0.0914,-0.0913,-0.0913,-0.0912,-0.0912,0,-0.0503,-0.055,-0.056,-0.0636,-0.067,-0.0692,-0.0744,-0.0787,-0.0815,-0.086,-0.0872,-0.0926,-0.0899,-0.0923,-0.0924,-0.0926,-0.0929,-0.0916,-0.0888,-0.0887,-0.0816,-0.0866,-0.0909,-0.0904,-0.0905,-0.0906,-0.0906,0,-0.0458,-0.0479,-0.049,-0.0522,-0.0562,-0.0588,-0.0639,-0.0694,-0.0735,-0.0757,-0.0813,-0.0864,-0.086,-0.088,-0.0881,-0.0886,-0.0915,-0.0855,-0.0854,-0.0838,-0.0926,-0.0863,-0.0861,-0.0903,-0.0904,-0.0905,-0.0901,0,-0.0426,-0.0449,-0.0459,-0.0495,-0.0519,-0.0549,-0.0573,-0.0602,-0.0623,-0.0646,-0.0709,-0.0726,-0.0773,-0.0784,-0.0784,-0.0838,-0.0813,-0.0801,-0.0758,-0.081,-0.08,-0.0804,-0.0738,-0.0737,-0.0736,-0.0736,0,0,-0.0396,-0.0415,-0.0405,-0.0429,-0.0455,-0.0456,-0.0496,-0.0513,-0.0552,-0.0578,-0.0569,-0.0649,-0.0663,-0.0726,-0.0751,-0.0752,-0.0741,-0.0727,-0.0787,-0.0793,-0.0798,-0.0791,-0.0796,-0.0734,-0.0734,-0.0734,-0.0733,0,-0.0384,-0.0381,-0.0397,-0.0411,-0.0429,-0.0443,-0.0453,-0.0477,-0.0498,-0.0542,-0.0561,-0.0599,-0.0629,-0.0659,-0.0675,-0.0735,-0.0702,-0.0739,-0.0766,-0.0779,-0.0786,-0.0792,-0.0787,-0.0792,-0.0731,-0.0731,-0.0732,0,-0.0369,-0.0372,-0.0377,-0.0391,-0.0401,-0.0429,-0.042,-0.044,-0.0475,-0.0467,-0.0522,-0.0539,-0.0559,-0.0601,-0.062,-0.0596,-0.0655,-0.0639,-0.0644,-0.0647,-0.0658,-0.0666,-0.0674,-0.0573,-0.0573,-0.0572,0,0,-0.0365,-0.0371,-0.0381,-0.039,-0.0395,-0.0411,-0.0421,-0.0435,-0.0456,-0.047,-0.0487,-0.051,-0.0543,-0.0551,-0.0576,-0.0598,-0.0588,-0.062,-0.0627,-0.0633,-0.0639,-0.0652,-0.0661,-0.0571,-0.057,-0.057,0,0,-0.0364,-0.0371,-0.0375,-0.0382,-0.0398,-0.041,-0.0421,-0.0434,-0.0463,-0.047,-0.0476,-0.048,-0.0528,-0.0519,-0.0495,-0.056,-0.053,-0.0535,-0.056,-0.0569,-0.0577,-0.058,-0.0471,0,0,0,0,0,-0.0362,-0.0367,-0.0371,-0.0373,-0.0388,-0.0405,-0.0409,-0.0426,-0.0433,-0.0448,-0.0472,-0.0456,-0.0517,-0.0495,-0.0496,-0.0522,-0.0546,-0.055,-0.0554,-0.0594,-0.0604,-0.0612,0,0,0,0,0,0,-0.0363,-0.0365,-0.037,-0.038,-0.0384,-0.0404,-0.0407,-0.0411,-0.0432,-0.0436,-0.0454,-0.0456,-0.0456,-0.0493,-0.0494,-0.052,-0.0471,-0.0547,-0.0551,-0.0554,-0.0598,-0.0606,-0.0613,0,0,0,0,0,-0.0364,-0.0365,-0.0386,-0.038,-0.0384,-0.0405,-0.0407,-0.0411,-0.0434,-0.0436,-0.044,-0.0448,-0.0456,-0.0458,-0.0493,-0.052,-0.047,-0.0471,-0.055,-0.0553,-0.0555,-0.0602,0,0,0,0,0,0,-0.0364,-0.0372,-0.0387,-0.0389,-0.0384,-0.0405,-0.0409,-0.0411,-0.0434,-0.0438,-0.0428,-0.043,-0.0455,-0.0457,-0.0459,-0.0521,-0.0469,-0.047,-0.047,-0.0552,-0.0554,-0.0556,0,0,0,0,0,0,-0.0372,-0.0374,-0.0388,-0.0391,-0.0394,-0.0405,-0.0408,-0.0412,-0.0434,-0.0425,-0.0428,-0.0429,-0.045,-0.0456,-0.0458,-0.0462,-0.0469,-0.0469,-0.047,-0.047,-0.0554,-0.0556,0,0,0,0,0,0,-0.0373,-0.0375,-0.0391,-0.0393,-0.0395,-0.0418,-0.0409,-0.0423,-0.0439,-0.0424,-0.044,-0.0441,-0.0448,-0.0451,-0.0457,-0.0461,-0.0462,-0.0469,-0.0469,-0.0469,-0.047,0,0,0,0,0,0,0,-0.0374,-0.0356,-0.0375,-0.0394,-0.0396,-0.0405,-0.0406,-0.0406,-0.0439,-0.0439,-0.044,-0.0441,-0.0466,-0.0467,-0.0467,-0.046,0,0,-0.0469,-0.0469,0,0,0,0,0,0,0,0,-0.0356,-0.0356,-0.0375,-0.0375,-0.0375,-0.0405,-0.0406,-0.0406,-0.0439,-0.0439,-0.044,-0.044,-0.0466,-0.0467,-0.0467,0,0,0,0,0,0,0,0,0,0,0,0,0,0,0,-0.0375,-0.0375,0,-0.0405,-0.0406,-0.0406,-0.0439,-0.0439,-0.044,-0.044,-0.0466,-0.0467,-0.0467,0,0,0,0,0,0,0,0,0,0,0,0,0,0,0,0,0,0,0,0,0,0,0,0,0,0,0,0,0,0,0,0,0,0,0,0,0,0,0,0,0,0,0,0,0,0,0,0,0,0,0,0,0,0,0,0,0,0,0,0,0,0,0,0,0,0,0,0,0]}]]]